Nampa, ID

4:16 AM MDT on May 28, 2018 (GMT -0600)
Nampa

Weather History for KMAN - January, 2014

Change the Weather History Date:

Saturday, January 4, 2014

  Actual Average (KBOI) Record (KBOI)
Temperature  
Mean Temperature 21 °F -  
Max Temperature 32 °F 33 °F 57 °F (1956)
Min Temperature 10 °F 20 °F -9 °F (1991)
Degree Days  
Heating Degree Days 44    
Moisture  
Dew Point 19 °F    
Average Humidity 90    
Maximum Humidity 100    
Minimum Humidity 64    
Precipitation  
Precipitation 0.00 in - - ()
Sea Level Pressure  
Sea Level Pressure 30.29 in    
Wind  
Wind Speed 3 mph (North)    
Max Wind Speed 9 mph    
Max Gust Speed -    
Visibility 9 miles    
Events      
Averages and records for this station are not official NWS values.
T = Trace of Precipitation, MM = Missing Value Source: NWS Daily Summary

Daily Weather History Graph

Daily Weather History Graph

Search for Another Location

Airport or City:

Astronomy

Jan. 04, 2014 Rise Set
Actual Time 8:19 AM MST 5:23 PM MST
Civil Twilight 7:46 AM MST 5:55 PM MST
Nautical Twilight 7:10 AM MST 6:31 PM MST
Astronomical Twilight 6:36 AM MST 7:06 PM MST
Moon 10:20 AM MST (1/4) 9:56 PM MST (1/4)
Length of Visible Light 10h 08m
Length of Day
9h 03m
Waxing Crescent, 16% of the Moon is Illuminated
Jan 4
Waxing Crescent
Jan 7
First Quarter
Jan 15
Full
Jan 23
Last Quarter
Jan 30
New

Hourly Weather History & Observations

Time (MST) Temp. Windchill Dew Point Humidity Pressure Visibility Wind Dir Wind Speed Gust Speed Precip Events Conditions
12:15 AM 21.2 °F 14.9 °F 21.2 °F 100% 30.12 in 7.0 mi NNW 4.6 mph - N/A   Clear
12:35 AM 19.4 °F 11.5 °F 19.4 °F 100% 30.12 in 10.0 mi NNW 5.8 mph - N/A   Clear
12:55 AM 17.6 °F 12.3 °F 17.6 °F 100% 30.13 in 10.0 mi SSW 3.5 mph - N/A   Clear
1:15 AM 17.6 °F 10.7 °F 17.6 °F 100% 30.13 in 8.0 mi East 4.6 mph - N/A   Clear
1:35 AM 17.6 °F 10.7 °F 17.6 °F 100% 30.13 in 9.0 mi East 4.6 mph - N/A   Clear
1:55 AM 15.8 °F - 15.8 °F 100% 30.15 in 6.0 mi Calm Calm - N/A   Unknown
2:15 AM 15.8 °F 10.2 °F 15.8 °F 100% 30.15 in 5.0 mi East 3.5 mph - N/A   Unknown
2:35 AM 15.8 °F - 15.8 °F 100% 30.16 in 7.0 mi Calm Calm - N/A   Clear
2:55 AM 15.8 °F 10.2 °F 15.8 °F 100% 30.17 in 5.0 mi NW 3.5 mph - N/A   Clear
3:15 AM 17.6 °F 8.2 °F 17.6 °F 100% 30.18 in 10.0 mi NNW 6.9 mph - N/A   Clear
3:35 AM 19.4 °F 12.8 °F 19.4 °F 100% 30.19 in 10.0 mi North 4.6 mph - N/A   Clear
3:55 AM 14.0 °F - 14.0 °F 100% 30.19 in 9.0 mi Calm Calm - N/A   Clear
4:15 AM 12.2 °F 4.3 °F 12.2 °F 100% 30.20 in 8.0 mi East 4.6 mph - N/A   Clear
4:35 AM 12.2 °F - 12.2 °F 100% 30.20 in 9.0 mi Calm Calm - N/A   Clear
4:55 AM 14.0 °F 8.2 °F 14.0 °F 100% 30.21 in 8.0 mi ENE 3.5 mph - N/A   Clear
5:15 AM 12.2 °F - 12.2 °F 100% 30.22 in 8.0 mi Calm Calm - N/A   Clear
5:35 AM 12.2 °F - 12.2 °F 100% 30.23 in 9.0 mi Calm Calm - N/A   Clear
5:55 AM 14.0 °F - 14.0 °F 100% 30.23 in 10.0 mi Calm Calm - N/A   Clear
6:15 AM 14.0 °F - 14.0 °F 100% 30.23 in 8.0 mi Calm Calm - N/A   Clear
6:35 AM 10.4 °F - 10.4 °F 100% 30.24 in 10.0 mi Calm Calm - N/A   Unknown
6:55 AM 12.2 °F - 12.2 °F 100% 30.25 in 8.0 mi Calm Calm - N/A   Unknown
7:15 AM 15.8 °F - 15.8 °F 100% 30.25 in 6.0 mi Calm Calm - N/A   Clear
7:35 AM 14.0 °F - 14.0 °F 100% 30.25 in 10.0 mi Calm Calm - N/A   Clear
7:55 AM 14.0 °F - 14.0 °F 100% 30.25 in 10.0 mi Calm Calm - N/A   Clear
8:15 AM 14.0 °F - 14.0 °F 100% 30.26 in 10.0 mi Calm Calm - N/A   Clear
8:35 AM 14.0 °F - 14.0 °F 100% 30.27 in 10.0 mi Calm Calm - N/A   Clear
8:55 AM 12.2 °F 6.1 °F 12.2 °F 100% 30.27 in 7.0 mi WNW 3.5 mph - N/A   Clear
9:15 AM 14.0 °F - 14.0 °F 100% 30.29 in 9.0 mi Calm Calm - N/A   Clear
9:35 AM 19.4 °F 12.8 °F 19.4 °F 100% 30.31 in 10.0 mi North 4.6 mph - N/A   Clear
9:55 AM 19.4 °F 12.8 °F 19.4 °F 100% 30.32 in 10.0 mi NNW 4.6 mph - N/A   Clear
10:15 AM 19.4 °F 12.8 °F 19.4 °F 100% 30.33 in 10.0 mi NW 4.6 mph - N/A   Clear
10:35 AM 23.0 °F 15.8 °F 23.0 °F 100% 30.34 in 10.0 mi North 5.8 mph - N/A   Clear
10:55 AM 23.0 °F 15.8 °F 23.0 °F 100% 30.34 in 10.0 mi North 5.8 mph - N/A   Clear
11:15 AM 24.8 °F 16.9 °F 24.8 °F 100% 30.34 in 10.0 mi NNW 6.9 mph - N/A   Clear
11:35 AM 24.8 °F 19.1 °F 24.8 °F 100% 30.35 in 10.0 mi North 4.6 mph - N/A   Clear
11:55 AM 24.8 °F 19.1 °F 24.8 °F 100% 30.35 in 10.0 mi North 4.6 mph - N/A   Clear
12:15 PM 26.6 °F 19.1 °F 24.8 °F 93% 30.34 in 10.0 mi North 6.9 mph - N/A   Clear
12:35 PM 28.4 °F 21.2 °F 24.8 °F 86% 30.34 in 10.0 mi North 6.9 mph - N/A   Clear
12:55 PM 28.4 °F 19.7 °F 26.6 °F 93% 30.34 in 10.0 mi NNW 9.2 mph - N/A   Clear
1:15 PM 28.4 °F 21.2 °F 26.6 °F 93% 30.34 in 10.0 mi North 6.9 mph - N/A   Clear
1:35 PM 30.2 °F 23.4 °F 26.6 °F 86% 30.34 in 10.0 mi NNW 6.9 mph - N/A   Clear
1:55 PM 32.0 °F 26.4 °F 24.8 °F 75% 30.33 in 10.0 mi NNW 5.8 mph - N/A   Clear
2:15 PM 32.0 °F 26.4 °F 26.6 °F 80% 30.33 in 10.0 mi North 5.8 mph - N/A   Clear
2:35 PM 32.0 °F 26.4 °F 24.8 °F 75% 30.33 in 10.0 mi North 5.8 mph - N/A   Clear
2:55 PM 32.0 °F 26.4 °F 24.8 °F 75% 30.34 in 10.0 mi North 5.8 mph - N/A   Clear
3:15 PM 32.0 °F 24.2 °F 23.0 °F 69% 30.34 in 10.0 mi NNW 9.2 mph - N/A   Clear
3:35 PM 32.0 °F 25.6 °F 24.8 °F 75% 30.34 in 10.0 mi NNW 6.9 mph - N/A   Clear
3:55 PM 32.0 °F 26.4 °F 23.0 °F 69% 30.34 in 10.0 mi NNE 5.8 mph - N/A   Clear
4:15 PM 32.0 °F 25.6 °F 23.0 °F 69% 30.34 in 10.0 mi North 6.9 mph - N/A   Clear
4:35 PM 32.0 °F 25.6 °F 23.0 °F 69% 30.34 in 10.0 mi NNW 6.9 mph - N/A   Clear
4:55 PM 32.0 °F 26.4 °F 21.2 °F 64% 30.34 in 10.0 mi NNW 5.8 mph - N/A   Clear
5:15 PM 32.0 °F 27.5 °F 21.2 °F 64% 30.34 in 10.0 mi NW 4.6 mph - N/A   Clear
5:35 PM 32.0 °F - 21.2 °F 64% 30.34 in 10.0 mi Calm Calm - N/A   Clear
5:55 PM 28.4 °F 24.6 °F 21.2 °F 74% 30.34 in 10.0 mi North 3.5 mph - N/A   Clear
6:15 PM 28.4 °F 22.2 °F 21.2 °F 74% 30.34 in 10.0 mi NNE 5.8 mph - N/A   Unknown
6:35 PM 28.4 °F 24.6 °F 21.2 °F 74% 30.35 in 10.0 mi NNE 3.5 mph - N/A   Unknown
6:55 PM 28.4 °F 23.3 °F 21.2 °F 74% 30.35 in 10.0 mi NNE 4.6 mph - N/A   Unknown
7:15 PM 26.6 °F 21.2 °F 19.4 °F 74% 30.35 in 10.0 mi NNW 4.6 mph - N/A   Clear
7:35 PM 23.0 °F 18.4 °F 21.2 °F 93% 30.35 in 10.0 mi West 3.5 mph - N/A   Clear
7:55 PM 24.8 °F 19.1 °F 21.2 °F 86% 30.36 in 10.0 mi NW 4.6 mph - N/A   Clear
8:15 PM 26.6 °F - 19.4 °F 74% 30.36 in 10.0 mi Calm Calm - N/A   Clear
8:35 PM 24.8 °F - 19.4 °F 80% 30.36 in 10.0 mi Calm Calm - N/A   Clear
8:55 PM 23.0 °F 18.4 °F 17.6 °F 80% 30.37 in 10.0 mi NW 3.5 mph - N/A   Clear
9:15 PM 21.2 °F - 19.4 °F 93% 30.37 in 10.0 mi Calm Calm - N/A   Unknown
9:35 PM 24.8 °F 19.1 °F 19.4 °F 80% 30.37 in 10.0 mi West 4.6 mph - N/A   Unknown
9:55 PM 24.8 °F 20.5 °F 17.6 °F 74% 30.37 in 10.0 mi West 3.5 mph - N/A   Unknown
10:15 PM 21.2 °F - 17.6 °F 86% 30.38 in 10.0 mi Calm Calm - N/A   Unknown
10:35 PM 19.4 °F - 17.6 °F 93% 30.39 in 10.0 mi Calm Calm - N/A   Clear
10:55 PM 21.2 °F - 17.6 °F 86% 30.39 in 10.0 mi Calm Calm - N/A   Clear
11:15 PM 19.4 °F - 17.6 °F 93% 30.39 in 10.0 mi Calm Calm - N/A   Clear
11:35 PM 14.0 °F - 14.0 °F 100% 30.40 in 10.0 mi Calm Calm - N/A   Clear
11:55 PM 17.6 °F - 17.6 °F 100% 30.40 in 10.0 mi Calm Calm - N/A   Unknown